Regional Weather Roundup
Issued by NWS

Home | Current Version | Previous Version | Text Only | Print | Product List | Glossary On
Versions: 1 2 3 4 5 6 7 8 9 10 11 12 13 14 15 16 17 18 19 20 21 22 23 24 25 26 27 28 29 30 31 32 33 34 35 36 37 38 39 40 41 42 43 44 45 46 47 48 49 50
000
ASUS42 KFFC 232010
RWRGA
WEATHER ROUNDUP FOR GEORGIA
NATIONAL WEATHER SERVICE PEACHTREE CITY GA
400 PM EDT SAT SEP 23 2017

NOTE: "FAIR" INDICATES FEW OR NO CLOUDS BELOW 12,000 FEET WITH NO
SIGNIFICANT WEATHER AND/OR OBSTRUCTIONS TO VISIBILITY.

* = USE WITH CAUTION. THE STATIONS MARKED WITH AN ASTERISK MAY NOT
REPORT WEATHER SUCH AS PRECIPITATION, FOG, OR THUNDER AND ARE NOT
QUALITY CONTROLLED BY NWS.

THE REMARK "TC" DENOTES TEMPERATURE READING IN DEGREES CELSIUS.

GAZ001>058-232100-
NORTH GEORGIA

CITY           SKY/WX    TMP DP  RH WIND       PRES   REMARKS
ATLANTA        MOSUNNY   86  63  45 NE5       30.03F
ATHENS         MOSUNNY   88  64  44 E8        30.02F
CHAMBLEE       SUNNY     87  60  40 VRB7      30.02F
PEACHTREE CITY MOSUNNY   89  63  41 E7        30.02F HX  90
ROME           SUNNY     91  64  40 CALM      30.00F HX  92
WEST ATLANTA   SUNNY     87  64  46 E8        30.02F
GAINESVILLE    SUNNY     86  59  39 E8        30.06
CARTERSVILLE   MOSUNNY   88  66  48 E5        30.02F HX  90


CITY           SKY/WX    TMP DP  RH WIND       PRES   REMARKS
DALTON*        TSTM      79  72  78 W3        30.03F
LAWRENCEVILLE* MOSUNNY   84  63  48 E7        30.04F
MARIETTA       MOSUNNY   86  63  45 E8        30.03F
KENNESAW*      MOSUNNY   86  63  45 CALM      30.03F
CANTON*        SUNNY     90  63  40 CALM      30.05F HX  90
$$

GAZ059>098-102>109-232100-
CENTRAL GEORGIA

CITY           SKY/WX    TMP DP  RH WIND       PRES   REMARKS
AUGUSTA-BUSH   MOSUNNY   91  64  40 SE7       29.98F HX  92
AUGUSTA-DANIEL MOSUNNY   89  63  41 E6        30.00F HX  90
COLUMBUS       MOSUNNY   90  62  39 E10       29.98F HX  90
MACON          PTSUNNY   81  70  69 NE7       29.99F
ROBINS AFB     MOSUNNY   86  65  49 E6        29.98F


CITY           SKY/WX    TMP DP  RH WIND       PRES   REMARKS
LAGRANGE*      MOSUNNY   89  64  42 E6        30.00F HX  90
SYLVANIA*      PTSUNNY   86  72  62 E6        30.00F HX  92
MILLEDGEVILLE* MOSUNNY   90  66  45 E7        30.01F HX  92
$$

GAZ099>101-110>166-232100-
SOUTH GEORGIA

CITY           SKY/WX    TMP DP  RH WIND       PRES   REMARKS
SAVANNAH       CLOUDY    87  68  52 E14       29.98F HX  90
VALDOSTA       PTSUNNY   85  69  58 NE9       29.93F
ALMA           PTSUNNY   85  70  60 VRB7      29.96F
ST SIMONS      PTSUNNY   83  74  74 NE15      29.96F
FT STEWART     CLOUDY    82  73  74 CALM      29.96F
ALBANY         MOSUNNY   90  66  45 E9        29.97F HX  92
HUNTER AFB     CLOUDY    85  71  62 E16G23    29.95F
MOODY AFB      MOSUNNY   84  68  57 E7        29.94F
BRUNSWICK      PTSUNNY   81  72  74 NE16      29.98F


CITY           SKY/WX    TMP DP  RH WIND       PRES   REMARKS
BAINBRIDGE*    SUNNY     91  72  52 E10G16    29.94F HX  98
MOULTRIE*      SUNNY     88  64  45 NE6       29.95F
VIDALIA*       PTSUNNY   88  68  51 NE7       29.98F HX  91
WAYCROSS*      MOSUNNY   87  67  51 E12G20    29.95F HX  90
DOUGLAS*       MOSUNNY   86  68  54 E12       29.98S
$$



USA.gov is the U.S. government's official web portal to all federal, state and local government web resources and services.